Hourly Weather Igualada

Today, 26 September, Saturday

Time Temperature Precipitation Wind Pressure Humidity
00:00 +10°C° 0 mm 6 mps 731 mmHg 61%
01:00 +10°C° 0 mm 5 mps 731 mmHg 63%
02:00 +11°C° 0 mm 4 mps 730 mmHg 64%
03:00 +10°C° 0 mm 4 mps 730 mmHg 66%
04:00 +10°C° 0 mm 3 mps 730 mmHg 66%
05:00 +10°C° 0 mm 3 mps 730 mmHg 66%
06:00 +10°C° 0 mm 3 mps 730 mmHg 66%
07:00 +12°C° 0 mm 3 mps 730 mmHg 60%
08:00 +13°C° 0 mm 3 mps 730 mmHg 53%
09:00 +16°C° 0 mm 3 mps 730 mmHg 46%
10:00 +17°C° 0 mm 3 mps 730 mmHg 41%
11:00 +19°C° 0 mm 3 mps 730 mmHg 35%
12:00 +20°C° 0 mm 3 mps 729 mmHg 30%
13:00 +20°C° 0 mm 3 mps 729 mmHg 29%
14:00 +21°C° 0 mm 4 mps 728 mmHg 28%
15:00 +21°C° 0 mm 4 mps 728 mmHg 28%
16:00 +20°C° 0 mm 4 mps 727 mmHg 35%
17:00 +19°C° 0 mm 5 mps 727 mmHg 42%
18:00 +17°C° 0 mm 5 mps 726 mmHg 49%
19:00 +16°C° 0.1 mm 6 mps 726 mmHg 54%
20:00 +16°C° 0.1 mm 7 mps 725 mmHg 59%
21:00 +16°C° 0.1 mm 8 mps 725 mmHg 64%
22:00 +15°C° 0 mm 6 mps 725 mmHg 67%
23:00 +15°C° 0 mm 5 mps 724 mmHg 70%

Tomorrow, 27 September, Sunday

Time Temperature Precipitation Wind Pressure Humidity
00:00 +14°C° 0 mm 4 mps 724 mmHg 73%
01:00 +13°C° 0 mm 3 mps 724 mmHg 74%
02:00 +12°C° 0 mm 3 mps 725 mmHg 75%
03:00 +13°C° 0 mm 2 mps 725 mmHg 76%
04:00 +12°C° 0 mm 2 mps 725 mmHg 70%
05:00 +10°C° 0 mm 2 mps 726 mmHg 65%
06:00 +10°C° 0 mm 2 mps 726 mmHg 59%
07:00 +12°C° 0 mm 2 mps 727 mmHg 54%
08:00 +13°C° 0 mm 3 mps 727 mmHg 48%
09:00 +14°C° 0 mm 3 mps 728 mmHg 42%
10:00 +17°C° 0 mm 3 mps 728 mmHg 38%
11:00 +18°C° 0 mm 4 mps 727 mmHg 33%
12:00 +19°C° 0 mm 4 mps 727 mmHg 29%
13:00 +19°C° 0 mm 4 mps 727 mmHg 26%
14:00 +20°C° 0 mm 4 mps 727 mmHg 24%
15:00 +21°C° 0 mm 4 mps 727 mmHg 21%
16:00 +19°C° 0 mm 3 mps 727 mmHg 27%
17:00 +18°C° 0 mm 3 mps 727 mmHg 33%
18:00 +17°C° 0 mm 3 mps 727 mmHg 39%
19:00 +16°C° 0 mm 2 mps 728 mmHg 51%
20:00 +14°C° 0 mm 2 mps 728 mmHg 63%
21:00 +13°C° 0 mm 2 mps 729 mmHg 75%
22:00 +13°C° 0 mm 1 mps 729 mmHg 74%
23:00 +13°C° 0 mm 1 mps 729 mmHg 73%

Day after tomorrow, 28 September, Monday

Time Temperature Precipitation Wind Pressure Humidity
00:00 +12°C° 0 mm 1 mps 729 mmHg 72%
01:00 +12°C° 0 mm 1 mps 728 mmHg 72%
02:00 +12°C° 0 mm 1 mps 728 mmHg 71%
03:00 +12°C° 0 mm 2 mps 728 mmHg 70%
04:00 +10°C° 0 mm 2 mps 728 mmHg 69%
05:00 +10°C° 0 mm 2 mps 729 mmHg 67%
06:00 +10°C° 0 mm 2 mps 729 mmHg 65%
07:00 +13°C° 0 mm 2 mps 729 mmHg 59%
08:00 +15°C° 0 mm 2 mps 730 mmHg 53%
09:00 +17°C° 0 mm 2 mps 730 mmHg 47%
10:00 +19°C° 0 mm 2 mps 730 mmHg 43%
11:00 +21°C° 0 mm 3 mps 731 mmHg 40%
12:00 +22°C° 0 mm 3 mps 731 mmHg 36%
13:00 +24°C° 0 mm 3 mps 731 mmHg 35%
14:00 +24°C° 0 mm 3 mps 731 mmHg 35%
15:00 +25°C° 0 mm 3 mps 731 mmHg 34%
16:00 +23°C° 0 mm 2 mps 731 mmHg 40%
17:00 +21°C° 0 mm 2 mps 731 mmHg 46%
18:00 +19°C° 0 mm 2 mps 731 mmHg 51%
19:00 +19°C° 0 mm 1 mps 732 mmHg 56%
20:00 +19°C° 0 mm 1 mps 732 mmHg 60%
21:00 +18°C° 0 mm 1 mps 733 mmHg 64%
22:00 +16°C° 0 mm 1 mps 733 mmHg 65%
23:00 +16°C° 0 mm 1 mps 733 mmHg 67%

29 September, Tuesday

Time Temperature Precipitation Wind Pressure Humidity
00:00 +16°C° 0 mm 1 mps 733 mmHg 68%
01:00 +16°C° 0 mm 1 mps 733 mmHg 69%
02:00 +15°C° 0 mm 1 mps 732 mmHg 70%
03:00 +15°C° 0 mm 1 mps 732 mmHg 70%
04:00 +15°C° 0 mm 1 mps 732 mmHg 71%
05:00 +15°C° 0 mm 1 mps 732 mmHg 71%
06:00 +15°C° 0 mm 1 mps 732 mmHg 72%
07:00 +16°C° 0 mm 1 mps 733 mmHg 66%
08:00 +19°C° 0 mm 1 mps 733 mmHg 60%
09:00 +21°C° 0 mm 1 mps 733 mmHg 54%
10:00 +22°C° 0 mm 1 mps 733 mmHg 49%
11:00 +23°C° 0 mm 2 mps 733 mmHg 44%
12:00 +24°C° 0 mm 3 mps 733 mmHg 39%
13:00 +25°C° 0 mm 3 mps 733 mmHg 38%
14:00 +25°C° 0 mm 3 mps 732 mmHg 37%
15:00 +25°C° 0 mm 3 mps 732 mmHg 36%
16:00 +22°C° 0 mm 3 mps 732 mmHg 42%
17:00 +21°C° 0 mm 2 mps 732 mmHg 48%
18:00 +19°C° 0 mm 2 mps 732 mmHg 54%
19:00 +18°C° 0 mm 2 mps 732 mmHg 59%
20:00 +19°C° 0 mm 1 mps 732 mmHg 64%
21:00 +18°C° 0 mm 1 mps 732 mmHg 68%
22:00 +18°C° 0 mm 1 mps 732 mmHg 70%
23:00 +16°C° 0 mm 1 mps 732 mmHg 71%

30 September, Wednesday

Time Temperature Precipitation Wind Pressure Humidity
00:00 +16°C° 0 mm 1 mps 731 mmHg 73%
01:00 +16°C° 0 mm 1 mps 731 mmHg 72%
02:00 +16°C° 0 mm 1 mps 731 mmHg 72%
03:00 +15°C° 0 mm 1 mps 731 mmHg 71%
04:00 +15°C° 0 mm 1 mps 731 mmHg 71%
05:00 +15°C° 0 mm 1 mps 731 mmHg 71%
06:00 +15°C° 0 mm 1 mps 731 mmHg 71%
07:00 +16°C° 0 mm 0 mps 731 mmHg 64%
08:00 +18°C° 0 mm 0 mps 731 mmHg 57%
09:00 +20°C° 0 mm 0 mps 731 mmHg 50%
10:00 +23°C° 0 mm 1 mps 731 mmHg 45%
11:00 +25°C° 0 mm 2 mps 731 mmHg 41%
12:00 +26°C° 0 mm 2 mps 731 mmHg 37%
13:00 +26°C° 0 mm 3 mps 730 mmHg 38%
14:00 +26°C° 0 mm 3 mps 730 mmHg 40%
15:00 +26°C° 0 mm 3 mps 730 mmHg 41%
16:00 +24°C° 0 mm 3 mps 729 mmHg 50%
17:00 +22°C° 0 mm 3 mps 729 mmHg 58%
18:00 +20°C° 0 mm 2 mps 729 mmHg 67%
19:00 +19°C° 0 mm 2 mps 729 mmHg 73%
20:00 +19°C° 0 mm 2 mps 729 mmHg 79%
21:00 +19°C° 0 mm 1 mps 729 mmHg 85%
22:00 +19°C° 0 mm 1 mps 729 mmHg 86%
23:00 +18°C° 0 mm 1 mps 728 mmHg 87%

1 October, Thursday

Time Temperature Precipitation Wind Pressure Humidity
00:00 +18°C° 0 mm 1 mps 728 mmHg 88%
01:00 +18°C° 0 mm 1 mps 728 mmHg 89%
02:00 +18°C° 0 mm 1 mps 727 mmHg 89%
03:00 +18°C° 0 mm 1 mps 727 mmHg 89%
04:00 +18°C° 0 mm 1 mps 726 mmHg 89%
05:00 +18°C° 0 mm 1 mps 726 mmHg 89%
06:00 +16°C° 0 mm 0 mps 726 mmHg 89%
07:00 +19°C° 0 mm 1 mps 726 mmHg 83%
08:00 +20°C° 0 mm 2 mps 725 mmHg 77%
09:00 +21°C° 0 mm 2 mps 725 mmHg 71%
10:00 +22°C° 0 mm 3 mps 725 mmHg 62%
11:00 +25°C° 0 mm 4 mps 725 mmHg 52%
12:00 +26°C° 0 mm 6 mps 724 mmHg 43%
13:00 +26°C° 0 mm 6 mps 724 mmHg 39%
14:00 +26°C° 0 mm 7 mps 724 mmHg 36%
15:00 +26°C° 0 mm 7 mps 724 mmHg 33%
16:00 +24°C° 0 mm 7 mps 724 mmHg 35%
17:00 +23°C° 0 mm 7 mps 724 mmHg 38%
18:00 +22°C° 0 mm 8 mps 724 mmHg 40%
19:00 +21°C° 0 mm 7 mps 725 mmHg 43%
20:00 +20°C° 0 mm 6 mps 725 mmHg 45%
21:00 +19°C° 0 mm 5 mps 726 mmHg 48%
22:00 +19°C° 0 mm 4 mps 726 mmHg 53%
23:00 +18°C° 0 mm 3 mps 726 mmHg 58%
Show more